Weather Roundup
Issued by NWS

Home | Current Version | Previous Version | Text Only | Print | Product List | Glossary On
Versions: 1 2 3 4 5 6 7 8 9 10 11 12 13 14 15 16 17 18 19 20 21 22 23 24 25 26 27 28 29 30 31 32 33 34 35 36 37 38 39 40 41 42 43 44 45 46 47 48 49 50
000
NZUS93 KARX 262110
HRRWXR

CURRENT HOURLY OBSERVATIONS ACROSS
MUCH OF THE UPPER MISSISSIPPI VALLEY
NATIONAL WEATHER SERVICE LA CROSSE WI
300 PM CST SUN FEB 26 2017


...SOUTHEAST MINNESOTA...


CITY           SKY/WX    TMP DP  RH WIND       PRES   REMARKS
ROCHESTER      SUNNY     29  24  82 SW14      29.84R WCI  18
ROCHESTER/MAYO FAIR      33  24  69 W12G22    29.84R WCI  24
WINONA         SUNNY     36  25  64 W8        29.85R WCI  29
AUSTIN         SUNNY     30  23  74 SW9       29.86R WCI  22
ALBERT LEA     SUNNY     32  25  74 W7        29.86R WCI  26
DODGE CENTER   NOT AVBL
PRESTON        SUNNY     30  22  72 W13       29.86R WCI  20
OWATONNA       SUNNY     34  25  69 SW10      29.85R WCI  26
FARIBAULT      MOSUNNY   37  23  56 W13G18    29.84R WCI  29
$$

...ELSEWHERE IN MINNESOTA...


CITY           SKY/WX    TMP DP  RH WIND       PRES   REMARKS
MINNEAPOLIS    MOSUNNY   38  14  37 W14       29.82R WCI  30
INTNL FALLS    SUNNY     18   1  47 W13       29.77S WCI   5
DULUTH         MOSUNNY   21   2  43 NW14G20   29.76R WCI   8
RED WING       MOSUNNY   37  19  48 W13G20    29.81R WCI  29
REDWOOD FALLS  SUNNY     34  14  43 NW12G20   29.86S WCI  25
MANKATO          N/A     37  24  59 W18       29.85R WCI  27
WORTHINGTON    MOSUNNY   34  26  72 SW14      29.86R WCI  25
FAIRMONT       SUNNY     34  26  72 W13       29.87R WCI  25
$$

...SOUTHWEST WISCONSIN...


CITY           SKY/WX    TMP DP  RH WIND       PRES   REMARKS
LA CROSSE      SUNNY     41  25  53 W14       29.84R
PRAIRIE DU CHI SUNNY     42  24  47 W12       29.87S
BOSCOBEL       SUNNY     43  24  47 W14G22    29.87R
LONE ROCK      MOSUNNY   43  26  51 W13       29.86S
PLATTEVILLE    SUNNY     43  29  58 W18       29.88R
FORT MC COY    MOSUNNY   40  25  56 SW9G17    29.83R WCI  34
CAMP DOUGLAS   PTSUNNY   39  23  52 W22       29.80S WCI  29
MAUSTON-NEW LI PTCLDY    40  24  53 SW10G20   29.81S WCI  33
VIROQUA        FAIR      37  23  56 W16       29.83R WCI  28
WIS DELLS      MOSUNNY   38  23  55 W14       29.83R WCI  30
$$

...ELSEWHERE IN WISCONSIN...


CITY           SKY/WX    TMP DP  RH WIND       PRES   REMARKS
MILWAUKEE      MOSUNNY   44  23  43 W22G32    29.87S
MADISON        MOSUNNY   41  25  53 SW8G20    29.85S
GREEN BAY      PTSUNNY   40  26  57 SW10      29.77S WCI  33
EAU CLAIRE     SUNNY     34  22  61 W16G23    29.79R WCI  24
BLACK RVR FLS  MOCLDY    40  21  46 W10G17    29.80S WCI  34
MEDFORD        CLOUDY    32  20  62 W13G18    29.74R WCI  22
WAUSAU         CLOUDY    34  21  59 W16       29.74R WCI  24
WIS RAPIDS     CLOUDY    38  20  48 W14G26    29.79R WCI  30
MARSHFIELD     SUNNY     34  19  54 W15       29.75S WCI  24
RICE LAKE      CLOUDY    35  22  60 W14       29.78R WCI  25
$$

...NORTHEAST IOWA...


CITY           SKY/WX    TMP DP  RH WIND       PRES   REMARKS
WATERLOO       SUNNY     40  26  57 W16       29.90R WCI  31
DUBUQUE        SUNNY     42  27  55 W23G31    29.88R
DECORAH        SUNNY     36  25  64 W14G21    29.86R WCI  27
MASON CITY     SUNNY     30  22  72 SW12      29.90R WCI  20
CHARLES CITY   SUNNY     32  25  74 W12       29.90R WCI  23
OELWEIN        SUNNY     39  27  60 W17G24    29.89R WCI  30
$$

...ELSEWHERE IN IOWA...


CITY           SKY/WX    TMP DP  RH WIND       PRES   REMARKS
DES MOINES     MOSUNNY   46  19  34 W18G29    29.92S
IOWA CITY      MOSUNNY   51  22  31 W18       29.92S
FORT DODGE     SUNNY     34  21  60 W7        29.92S WCI  28
MARSHALLTOWN   SUNNY     41  26  55 W20       29.91R
CEDAR RAPIDS   MOSUNNY   48  25  40 W22       29.88F
$$

...NORTHERN ILLINOIS...


CITY           SKY/WX    TMP DP  RH WIND       PRES   REMARKS
CHICAGO-OHARE  MOSUNNY   49  20  31 SW23G33   29.92S
CHICAGO-MIDWAY MOSUNNY   49  19  30 SW17G36   29.94S
MOLINE         CLOUDY    49  23  36 W12       29.92S
ROCKFORD       MOSUNNY   47  22  37 SW20G30   29.92S
PEORIA         SUNNY     50  20  30 S21G26    29.97F
$$

NOTE: "FAIR" INDICATES FEW OR NO CLOUDS BELOW 12,000 FEET WITH NO
SIGNIFICANT WEATHER AND/OR OBSTRUCTIONS TO VISIBILITY. WIND
SPEEDS ARE IN MILES-PER-HOUR.




USA.gov is the U.S. government's official web portal to all federal, state and local government web resources and services.